Location: Allonne
(49.4086°N, 2.1143°E)
Time: 06:22:11
(UTC+00:00)

Cosmos 540 Rocket - Pass Details

Date: 03 February 2023
Orbit: 740 x 751 km, 74.1° (Epoch: 29 March)

Event Time Altitude Azimuth Distance (km) Brightness Sun altitude
Rises 18:30:50 0° 335° (NNW) 3,208 7.0 -16.5°
Reaches altitude 10° 18:33:12 10° 334° (NNW) 2,278 6.2 -16.9°
Maximum altitude 18:38:21 75° 250° (WSW) 777 3.6 -17.7°
Drops below altitude 10° 18:43:27 10° 165° (SSE) 2,254 5.8 -18.5°
Sets 18:45:47 0° 164° (SSE) 3,171 6.6 -18.9°
